Time,TemperatureF,DewpointF,PressureIn,WindDirection,WindDirectionDegrees,WindSpeedMPH,WindSpeedGustMPH,Humidity,HourlyPrecipIn,Conditions,Clouds,dailyrainin,SoftwareType,DateUTC
2013-03-27 00:00:00,34.1,26.0,30.24,West,278,2.0,4.0,71,0.00,,,0.00,weatherlink.com 1.10,2013-03-27 05:00:00,
2013-03-27 00:05:00,34.1,25.7,30.24,WNW,283,4.0,4.0,71,0.00,,,0.00,Wunderground v.1.15,2013-03-27 05:05:00,
2013-03-27 00:12:00,34.0,25.2,30.24,WNW,303,1.0,2.0,70,0.00,,,0.00,Wunderground v.1.15,2013-03-27 05:12:00,
2013-03-27 00:17:00,34.0,25.2,30.25,West,278,2.0,3.0,70,0.00,,,0.00,Wunderground v.1.15,2013-03-27 05:17:00,
2013-03-27 00:23:00,34.0,25.2,30.25,WSW,253,4.0,4.0,70,0.00,,,0.00,Wunderground v.1.15,2013-03-27 05:23:00,
2013-03-27 00:28:00,34.0,25.2,30.25,WNW,283,1.0,2.0,70,0.00,,,0.00,Wunderground v.1.15,2013-03-27 05:28:00,
2013-03-27 00:34:00,33.9,25.1,30.25,West,280,1.0,2.0,70,0.00,,,0.00,Wunderground v.1.15,2013-03-27 05:34:00,
2013-03-27 00:40:00,33.9,25.0,30.25,West,274,1.0,4.0,70,0.00,,,0.00,weatherlink.com 1.10,2013-03-27 05:40:00,
2013-03-27 00:45:00,33.8,25.4,30.25,West,276,1.0,2.0,71,0.00,,,0.00,Wunderground v.1.15,2013-03-27 05:45:00,
2013-03-27 00:51:00,33.8,25.0,30.25,WSW,246,4.0,4.0,70,0.00,,,0.00,Wunderground v.1.15,2013-03-27 05:51:00,
2013-03-27 00:57:00,33.8,25.0,30.25,West,262,1.0,4.0,70,0.00,,,0.00,Wunderground v.1.15,2013-03-27 05:57:00,
2013-03-27 01:02:00,33.7,25.0,30.25,WSW,253,0.0,3.0,70,0.00,,,0.00,Wunderground v.1.15,2013-03-27 06:02:00,
2013-03-27 01:08:00,33.7,25.0,30.25,West,280,2.0,2.0,70,0.00,,,0.00,Wunderground v.1.15,2013-03-27 06:08:00,
2013-03-27 01:13:00,33.7,25.0,30.25,West,273,3.0,3.0,70,0.00,,,0.00,Wunderground v.1.15,2013-03-27 06:13:00,
2013-03-27 01:19:00,33.7,25.0,30.25,WNW,285,5.0,5.0,70,0.00,,,0.00,Wunderground v.1.15,2013-03-27 06:19:00,
2013-03-27 01:25:00,33.6,25.0,30.25,NW,325,1.0,6.0,70,0.00,,,0.00,weatherlink.com 1.10,2013-03-27 06:25:00,
2013-03-27 01:31:00,33.5,25.1,30.25,West,278,0.0,2.0,71,0.00,,,0.00,Wunderground v.1.15,2013-03-27 06:31:00,
2013-03-27 01:37:00,33.4,25.0,30.25,West,273,1.0,3.0,71,0.00,,,0.00,Wunderground v.1.15,2013-03-27 06:37:00,
2013-03-27 01:43:00,33.4,25.0,30.25,WNW,299,3.0,3.0,71,0.00,,,0.00,Wunderground v.1.15,2013-03-27 06:43:00,
2013-03-27 01:48:00,33.2,25.1,30.25,West,266,3.0,3.0,72,0.00,,,0.00,Wunderground v.1.15,2013-03-27 06:48:00,
2013-03-27 01:54:00,33.2,25.1,30.25,WNW,295,4.0,4.0,72,0.00,,,0.00,Wunderground v.1.15,2013-03-27 06:54:00,
2013-03-27 01:59:00,33.2,25.1,30.25,WNW,283,1.0,2.0,72,0.00,,,0.00,Wunderground v.1.15,2013-03-27 06:59:00,
2013-03-27 02:04:00,33.3,24.9,30.25,West,274,2.0,4.0,71,0.00,,,0.00,Wunderground v.1.15,2013-03-27 07:04:00,
2013-03-27 02:09:00,33.3,24.9,30.25,WNW,283,3.0,5.0,71,0.00,,,0.00,Wunderground v.1.15,2013-03-27 07:09:00,
2013-03-27 02:14:00,33.3,24.9,30.25,WNW,290,4.0,5.0,71,0.00,,,0.00,Wunderground v.1.15,2013-03-27 07:14:00,
2013-03-27 02:19:00,33.2,24.8,30.25,WNW,290,3.0,4.0,71,0.00,,,0.00,Wunderground v.1.15,2013-03-27 07:19:00,
2013-03-27 02:24:00,33.2,24.8,30.25,WNW,293,1.0,5.0,71,0.00,,,0.00,Wunderground v.1.15,2013-03-27 07:24:00,
2013-03-27 02:29:00,33.2,24.8,30.25,WNW,303,1.0,3.0,71,0.00,,,0.00,Wunderground v.1.15,2013-03-27 07:29:00,
2013-03-27 02:34:00,33.2,24.8,30.25,WNW,301,2.0,5.0,71,0.00,,,0.00,Wunderground v.1.15,2013-03-27 07:34:00,
2013-03-27 02:39:00,33.1,24.7,30.25,WNW,290,2.0,3.0,71,0.00,,,0.00,Wunderground v.1.15,2013-03-27 07:39:00,
2013-03-27 02:44:00,33.1,24.7,30.25,WNW,290,2.0,4.0,71,0.00,,,0.00,Wunderground v.1.15,2013-03-27 07:44:00,
2013-03-27 02:49:00,33.0,25.0,30.25,West,276,2.0,2.0,72,0.00,,,0.00,Wunderground v.1.15,2013-03-27 07:49:00,
2013-03-27 02:54:00,33.0,24.6,30.25,SW,235,1.0,4.0,71,0.00,,,0.00,Wunderground v.1.15,2013-03-27 07:54:00,
2013-03-27 02:59:00,33.0,25.0,30.25,WNW,291,4.0,4.0,72,0.00,,,0.00,Wunderground v.1.15,2013-03-27 07:59:00,
2013-03-27 03:04:00,33.0,24.6,30.25,WSW,253,1.0,4.0,71,0.00,,,0.00,Wunderground v.1.15,2013-03-27 08:04:00,
2013-03-27 03:09:00,33.0,24.6,30.25,WNW,285,2.0,4.0,71,0.00,,,0.00,Wunderground v.1.15,2013-03-27 08:09:00,
2013-03-27 03:14:00,33.1,24.7,30.26,WNW,293,2.0,4.0,71,0.00,,,0.00,Wunderground v.1.15,2013-03-27 08:14:00,
2013-03-27 03:19:00,33.1,24.7,30.25,WNW,297,2.0,4.0,71,0.00,,,0.00,Wunderground v.1.15,2013-03-27 08:19:00,
2013-03-27 03:24:00,33.0,24.6,30.25,WNW,293,2.0,4.0,71,0.00,,,0.00,Wunderground v.1.15,2013-03-27 08:24:00,
2013-03-27 03:29:00,32.9,24.9,30.25,West,274,2.0,3.0,72,0.00,,,0.00,Wunderground v.1.15,2013-03-27 08:29:00,
2013-03-27 03:34:00,32.9,24.9,30.25,West,278,4.0,4.0,72,0.00,,,0.00,Wunderground v.1.15,2013-03-27 08:34:00,
2013-03-27 03:39:00,32.9,24.9,30.25,West,273,4.0,5.0,72,0.00,,,0.00,Wunderground v.1.15,2013-03-27 08:39:00,
2013-03-27 03:44:00,32.8,24.8,30.25,West,272,2.0,5.0,72,0.00,,,0.00,Wunderground v.1.15,2013-03-27 08:44:00,
2013-03-27 03:49:00,32.8,24.8,30.25,WNW,283,2.0,4.0,72,0.00,,,0.00,Wunderground v.1.15,2013-03-27 08:49:00,
2013-03-27 03:54:00,32.7,25.0,30.26,WNW,290,2.0,4.0,73,0.00,,,0.00,Wunderground v.1.15,2013-03-27 08:54:00,
2013-03-27 03:59:00,32.7,25.0,30.25,WNW,288,3.0,5.0,73,0.00,,,0.00,Wunderground v.1.15,2013-03-27 08:59:00,
2013-03-27 04:04:00,32.7,25.0,30.25,WNW,285,2.0,5.0,73,0.00,,,0.00,Wunderground v.1.15,2013-03-27 09:04:00,
2013-03-27 04:09:00,32.7,25.0,30.26,West,274,1.0,3.0,73,0.00,,,0.00,Wunderground v.1.15,2013-03-27 09:09:00,
2013-03-27 04:14:00,32.7,25.0,30.26,West,259,4.0,5.0,73,0.00,,,0.00,Wunderground v.1.15,2013-03-27 09:14:00,
2013-03-27 04:19:00,32.6,24.9,30.26,WNW,287,2.0,3.0,73,0.00,,,0.00,Wunderground v.1.15,2013-03-27 09:19:00,
2013-03-27 04:24:00,32.6,24.6,30.26,West,277,2.0,5.0,72,0.00,,,0.00,Wunderground v.1.15,2013-03-27 09:24:00,
2013-03-27 04:29:00,32.6,24.9,30.26,West,280,1.0,3.0,73,0.00,,,0.00,Wunderground v.1.15,2013-03-27 09:29:00,
2013-03-27 04:34:00,32.6,24.9,30.26,NW,305,2.0,5.0,73,0.00,,,0.00,Wunderground v.1.15,2013-03-27 09:34:00,
2013-03-27 04:39:00,32.5,24.8,30.26,West,264,3.0,4.0,73,0.00,,,0.00,Wunderground v.1.15,2013-03-27 09:39:00,
2013-03-27 04:44:00,32.5,24.8,30.26,West,263,2.0,4.0,73,0.00,,,0.00,Wunderground v.1.15,2013-03-27 09:44:00,
2013-03-27 04:49:00,32.5,24.8,30.26,West,281,2.0,5.0,73,0.00,,,0.00,Wunderground v.1.15,2013-03-27 09:49:00,
2013-03-27 04:54:00,32.4,24.7,30.26,West,281,2.0,5.0,73,0.00,,,0.00,Wunderground v.1.15,2013-03-27 09:54:00,
2013-03-27 04:59:00,32.4,24.7,30.26,West,269,1.0,3.0,73,0.00,,,0.00,Wunderground v.1.15,2013-03-27 09:59:00,
2013-03-27 05:04:00,32.3,24.6,30.26,WNW,295,3.0,4.0,73,0.00,,,0.00,Wunderground v.1.15,2013-03-27 10:04:00,
2013-03-27 05:09:00,32.3,24.6,30.26,WNW,290,2.0,3.0,73,0.00,,,0.00,Wunderground v.1.15,2013-03-27 10:09:00,
2013-03-27 05:14:00,32.3,24.9,30.26,West,276,1.0,5.0,74,0.00,,,0.00,Wunderground v.1.15,2013-03-27 10:14:00,
2013-03-27 05:19:00,32.2,24.8,30.26,West,274,3.0,3.0,74,0.00,,,0.00,Wunderground v.1.15,2013-03-27 10:19:00,
2013-03-27 05:24:00,32.2,24.8,30.26,WNW,292,0.0,4.0,74,0.00,,,0.00,Wunderground v.1.15,2013-03-27 10:24:00,
2013-03-27 05:29:00,32.1,24.7,30.26,WNW,285,1.0,2.0,74,0.00,,,0.00,Wunderground v.1.15,2013-03-27 10:29:00,
2013-03-27 05:34:00,32.1,24.7,30.26,WNW,284,2.0,4.0,74,0.00,,,0.00,Wunderground v.1.15,2013-03-27 10:34:00,
2013-03-27 05:39:00,32.1,24.7,30.26,West,262,3.0,4.0,74,0.00,,,0.00,Wunderground v.1.15,2013-03-27 10:39:00,
2013-03-27 05:44:00,32.1,24.7,30.26,WNW,284,2.0,4.0,74,0.00,,,0.00,Wunderground v.1.15,2013-03-27 10:44:00,
2013-03-27 05:49:00,32.1,24.7,30.26,West,270,1.0,3.0,74,0.00,,,0.00,Wunderground v.1.15,2013-03-27 10:49:00,
2013-03-27 05:54:00,32.0,24.6,30.26,WSW,252,2.0,4.0,74,0.00,,,0.00,Wunderground v.1.15,2013-03-27 10:54:00,
2013-03-27 05:59:00,32.0,24.6,30.26,West,273,1.0,2.0,74,0.00,,,0.00,Wunderground v.1.15,2013-03-27 10:59:00,
2013-03-27 06:04:00,31.9,24.9,30.26,West,277,0.0,2.0,75,0.00,,,0.00,Wunderground v.1.15,2013-03-27 11:04:00,
2013-03-27 06:09:00,31.8,24.8,30.27,WNW,284,2.0,2.0,75,0.00,,,0.00,Wunderground v.1.15,2013-03-27 11:09:00,
2013-03-27 06:14:00,31.8,24.8,30.27,West,266,2.0,4.0,75,0.00,,,0.00,Wunderground v.1.15,2013-03-27 11:14:00,
2013-03-27 06:19:00,31.7,24.7,30.27,West,259,1.0,2.0,75,0.00,,,0.00,Wunderground v.1.15,2013-03-27 11:19:00,
2013-03-27 06:24:00,31.6,24.9,30.27,West,273,1.0,2.0,76,0.00,,,0.00,Wunderground v.1.15,2013-03-27 11:24:00,
2013-03-27 06:29:00,31.6,24.9,30.27,West,269,1.0,1.0,76,0.00,,,0.00,Wunderground v.1.15,2013-03-27 11:29:00,
2013-03-27 06:34:00,31.5,24.8,30.27,West,263,2.0,3.0,76,0.00,,,0.00,Wunderground v.1.15,2013-03-27 11:34:00,
2013-03-27 06:39:00,31.4,25.0,30.27,West,263,2.0,2.0,77,0.00,,,0.00,Wunderground v.1.15,2013-03-27 11:39:00,
2013-03-27 06:44:00,31.3,24.9,30.27,West,264,0.0,3.0,77,0.00,,,0.00,Wunderground v.1.15,2013-03-27 11:44:00,
2013-03-27 06:49:00,31.3,24.9,30.27,West,276,1.0,2.0,77,0.00,,,0.00,Wunderground v.1.15,2013-03-27 11:49:00,
2013-03-27 06:54:00,31.4,25.0,30.27,West,276,3.0,3.0,77,0.00,,,0.00,Wunderground v.1.15,2013-03-27 11:54:00,
2013-03-27 06:59:00,31.5,24.8,30.27,West,274,1.0,5.0,76,0.00,,,0.00,Wunderground v.1.15,2013-03-27 11:59:00,
2013-03-27 07:04:00,31.5,24.8,30.28,West,266,1.0,5.0,76,0.00,,,0.00,Wunderground v.1.15,2013-03-27 12:04:00,
2013-03-27 07:09:00,31.5,25.1,30.28,West,274,1.0,1.0,77,0.00,,,0.00,Wunderground v.1.15,2013-03-27 12:09:00,
2013-03-27 07:14:00,31.6,24.9,30.28,West,259,1.0,3.0,76,0.00,,,0.00,Wunderground v.1.15,2013-03-27 12:14:00,
2013-03-27 07:19:00,31.6,25.2,30.28,West,272,1.0,2.0,77,0.00,,,0.00,Wunderground v.1.15,2013-03-27 12:19:00,
2013-03-27 07:24:00,31.6,25.2,30.28,West,264,2.0,4.0,77,0.00,,,0.00,Wunderground v.1.15,2013-03-27 12:24:00,
2013-03-27 07:29:00,31.7,25.3,30.29,West,280,1.0,4.0,77,0.00,,,0.00,Wunderground v.1.15,2013-03-27 12:29:00,
2013-03-27 07:34:00,31.8,25.1,30.29,West,272,2.0,4.0,76,0.00,,,0.00,Wunderground v.1.15,2013-03-27 12:34:00,
2013-03-27 07:39:00,32.0,25.3,30.29,West,276,1.0,3.0,76,0.00,,,0.00,Wunderground v.1.15,2013-03-27 12:39:00,
2013-03-27 07:45:00,32.2,25.5,30.29,WSW,253,3.0,3.0,76,0.00,,,0.00,Wunderground v.1.15,2013-03-27 12:45:00,
2013-03-27 07:50:00,32.3,25.3,30.29,West,280,3.0,4.0,75,0.00,,,0.00,Wunderground v.1.15,2013-03-27 12:50:00,
2013-03-27 07:55:00,32.5,25.5,30.29,West,270,1.0,4.0,75,0.00,,,0.00,Wunderground v.1.15,2013-03-27 12:55:00,
2013-03-27 08:00:00,32.6,25.6,30.30,WNW,293,1.0,4.0,75,0.00,,,0.00,Wunderground v.1.15,2013-03-27 13:00:00,
2013-03-27 08:05:00,32.9,25.5,30.30,West,263,3.0,4.0,74,0.00,,,0.00,Wunderground v.1.15,2013-03-27 13:05:00,
2013-03-27 08:10:00,33.0,25.6,30.30,West,259,2.0,3.0,74,0.00,,,0.00,Wunderground v.1.15,2013-03-27 13:10:00,
2013-03-27 08:15:00,33.1,25.7,30.30,West,276,3.0,5.0,74,0.00,,,0.00,Wunderground v.1.15,2013-03-27 13:15:00,
2013-03-27 08:20:00,33.3,25.9,30.30,West,269,3.0,4.0,74,0.00,,,0.00,Wunderground v.1.15,2013-03-27 13:20:00,
2013-03-27 08:25:00,33.5,25.8,30.30,WSW,249,3.0,5.0,73,0.00,,,0.00,Wunderground v.1.15,2013-03-27 13:25:00,
2013-03-27 08:30:00,33.7,26.0,30.30,West,276,3.0,3.0,73,0.00,,,0.00,Wunderground v.1.15,2013-03-27 13:30:00,
2013-03-27 08:35:00,33.8,25.7,30.30,West,269,1.0,6.0,72,0.00,,,0.00,Wunderground v.1.15,2013-03-27 13:35:00,
2013-03-27 08:40:00,34.1,26.0,30.30,WNW,297,2.0,4.0,72,0.00,,,0.00,Wunderground v.1.15,2013-03-27 13:40:00,
2013-03-27 08:45:00,34.3,25.9,30.30,WSW,256,4.0,5.0,71,0.00,,,0.00,Wunderground v.1.15,2013-03-27 13:45:00,
2013-03-27 08:50:00,34.4,26.0,30.30,West,274,1.0,3.0,71,0.00,,,0.00,Wunderground v.1.15,2013-03-27 13:50:00,
2013-03-27 08:55:00,34.8,26.0,30.30,WNW,285,1.0,4.0,70,0.00,,,0.00,Wunderground v.1.15,2013-03-27 13:55:00,
2013-03-27 09:00:00,35.2,26.4,30.30,WNW,294,0.0,3.0,70,0.00,,,0.00,Wunderground v.1.15,2013-03-27 14:00:00,
2013-03-27 09:05:00,35.4,25.9,30.30,West,278,3.0,7.0,68,0.00,,,0.00,Wunderground v.1.15,2013-03-27 14:05:00,
2013-03-27 09:10:00,35.6,25.7,30.30,WNW,286,3.0,5.0,67,0.00,,,0.00,Wunderground v.1.15,2013-03-27 14:10:00,
2013-03-27 09:15:00,36.0,25.7,30.30,NW,304,2.0,6.0,66,0.00,,,0.00,Wunderground v.1.15,2013-03-27 14:15:00,
2013-03-27 09:20:00,36.2,25.2,30.30,West,281,3.0,6.0,64,0.00,,,0.00,Wunderground v.1.15,2013-03-27 14:20:00,
2013-03-27 09:25:00,36.3,25.3,30.30,West,280,0.0,6.0,64,0.00,,,0.00,Wunderground v.1.15,2013-03-27 14:25:00,
2013-03-27 09:30:00,36.9,25.5,30.30,West,272,4.0,6.0,63,0.00,,,0.00,Wunderground v.1.15,2013-03-27 14:30:00,
2013-03-27 09:35:00,37.3,24.7,30.30,WNW,294,3.0,6.0,60,0.00,,,0.00,Wunderground v.1.15,2013-03-27 14:35:00,
2013-03-27 09:40:00,37.7,24.6,30.30,West,277,5.0,5.0,59,0.00,,,0.00,Wunderground v.1.15,2013-03-27 14:40:00,
2013-03-27 09:45:00,38.3,24.0,30.30,NNE,12,3.0,10.0,56,0.00,,,0.00,Wunderground v.1.15,2013-03-27 14:45:00,
2013-03-27 09:50:00,38.4,22.7,30.30,West,281,3.0,6.0,53,0.00,,,0.00,Wunderground v.1.15,2013-03-27 14:50:00,
2013-03-27 09:55:00,38.6,22.9,30.30,WNW,303,1.0,8.0,53,0.00,,,0.00,Wunderground v.1.15,2013-03-27 14:55:00,
2013-03-27 10:00:00,39.0,22.8,30.30,WNW,286,3.0,6.0,52,0.00,,,0.00,Wunderground v.1.15,2013-03-27 15:00:00,
2013-03-27 10:05:00,39.2,22.6,30.30,WSW,252,2.0,8.0,51,0.00,,,0.00,Wunderground v.1.15,2013-03-27 15:05:00,
2013-03-27 10:10:00,39.5,22.8,30.30,WNW,291,4.0,8.0,51,0.00,,,0.00,Wunderground v.1.15,2013-03-27 15:10:00,
2013-03-27 10:15:00,39.6,22.5,30.30,West,267,10.0,13.0,50,0.00,,,0.00,Wunderground v.1.15,2013-03-27 15:15:00,
2013-03-27 10:20:00,39.5,20.9,30.30,NNW,331,2.0,14.0,47,0.00,,,0.00,Wunderground v.1.15,2013-03-27 15:20:00,
2013-03-27 10:25:00,39.8,20.7,30.30,West,274,7.0,14.0,46,0.00,,,0.00,Wunderground v.1.15,2013-03-27 15:25:00,
2013-03-27 10:30:00,39.6,20.5,30.30,WNW,294,2.0,11.0,46,0.00,,,0.00,Wunderground v.1.15,2013-03-27 15:30:00,
2013-03-27 10:35:00,39.7,20.1,30.31,SW,229,2.0,13.0,45,0.00,,,0.00,Wunderground v.1.15,2013-03-27 15:35:00,
2013-03-27 10:40:00,40.5,20.8,30.30,North,352,6.0,7.0,45,0.00,,,0.00,Wunderground v.1.15,2013-03-27 15:40:00,
2013-03-27 10:45:00,40.7,20.5,30.31,North,356,4.0,9.0,44,0.00,,,0.00,Wunderground v.1.15,2013-03-27 15:45:00,
2013-03-27 10:50:00,40.8,22.1,30.31,NW,312,5.0,6.0,47,0.00,,,0.00,Wunderground v.1.15,2013-03-27 15:50:00,
2013-03-27 10:55:00,40.9,21.2,30.31,WNW,294,4.0,9.0,45,0.00,,,0.00,Wunderground v.1.15,2013-03-27 15:55:00,
2013-03-27 11:00:00,41.1,21.3,30.31,WSW,237,1.0,6.0,45,0.00,,,0.00,Wunderground v.1.15,2013-03-27 16:00:00,
2013-03-27 11:05:00,40.9,20.6,30.31,NNW,331,6.0,9.0,44,0.00,,,0.00,Wunderground v.1.15,2013-03-27 16:05:00,
2013-03-27 11:10:00,40.6,21.9,30.31,West,263,2.0,5.0,47,0.00,,,0.00,Wunderground v.1.15,2013-03-27 16:10:00,
2013-03-27 11:15:00,40.5,21.3,30.31,WSW,245,2.0,8.0,46,0.00,,,0.00,Wunderground v.1.15,2013-03-27 16:15:00,
2013-03-27 11:20:00,40.8,21.1,30.30,NW,317,7.0,7.0,45,0.00,,,0.00,Wunderground v.1.15,2013-03-27 16:20:00,
2013-03-27 11:26:00,40.4,20.7,30.30,NNW,348,3.0,7.0,45,0.00,,,0.00,Wunderground v.1.15,2013-03-27 16:26:00,
2013-03-27 11:31:00,40.3,20.6,30.31,NW,316,2.0,5.0,45,0.00,,,0.00,Wunderground v.1.15,2013-03-27 16:31:00,
2013-03-27 11:36:00,41.1,20.8,30.30,West,277,6.0,8.0,44,0.00,,,0.00,Wunderground v.1.15,2013-03-27 16:36:00,
2013-03-27 11:41:00,41.3,21.0,30.31,NNW,332,3.0,7.0,44,0.00,,,0.00,Wunderground v.1.15,2013-03-27 16:41:00,
2013-03-27 11:46:00,40.4,20.2,30.31,West,278,1.0,9.0,44,0.00,,,0.00,Wunderground v.1.15,2013-03-27 16:46:00,
2013-03-27 11:51:00,40.5,21.3,30.31,West,274,3.0,9.0,46,0.00,,,0.00,Wunderground v.1.15,2013-03-27 16:51:00,
2013-03-27 11:56:00,40.3,20.6,30.31,NNW,343,3.0,11.0,45,0.00,,,0.00,Wunderground v.1.15,2013-03-27 16:56:00,
2013-03-27 12:01:00,40.1,21.5,30.31,WSW,252,5.0,10.0,47,0.00,,,0.00,Wunderground v.1.15,2013-03-27 17:01:00,
2013-03-27 12:06:00,40.1,20.4,30.31,West,269,5.0,10.0,45,0.00,,,0.00,Wunderground v.1.15,2013-03-27 17:06:00,
2013-03-27 12:11:00,40.2,21.6,30.30,West,280,8.0,11.0,47,0.00,,,0.00,Wunderground v.1.15,2013-03-27 17:11:00,
2013-03-27 12:16:00,40.3,20.6,30.31,WSW,256,6.0,12.0,45,0.00,,,0.00,Wunderground v.1.15,2013-03-27 17:16:00,
2013-03-27 12:22:00,40.3,21.6,30.30,NNW,342,3.0,11.0,47,0.00,,,0.00,Wunderground v.1.15,2013-03-27 17:22:00,
2013-03-27 12:27:00,40.9,21.2,30.30,WNW,293,2.0,11.0,45,0.00,,,0.00,Wunderground v.1.15,2013-03-27 17:27:00,
2013-03-27 12:32:00,40.5,20.3,30.30,WSW,255,5.0,7.0,44,0.00,,,0.00,Wunderground v.1.15,2013-03-27 17:32:00,
2013-03-27 12:37:00,40.2,21.0,30.30,West,262,6.0,8.0,46,0.00,,,0.00,Wunderground v.1.15,2013-03-27 17:37:00,
2013-03-27 12:42:00,40.1,22.0,30.30,West,260,6.0,10.0,48,0.00,,,0.00,Wunderground v.1.15,2013-03-27 17:42:00,
2013-03-27 12:47:00,40.9,22.2,30.30,West,261,1.0,10.0,47,0.00,,,0.00,Wunderground v.1.15,2013-03-27 17:47:00,
2013-03-27 12:52:00,40.6,21.9,30.30,WNW,294,3.0,11.0,47,0.00,,,0.00,Wunderground v.1.15,2013-03-27 17:52:00,
2013-03-27 12:57:00,40.4,21.7,30.30,NW,326,3.0,11.0,47,0.00,,,0.00,Wunderground v.1.15,2013-03-27 17:57:00,
2013-03-27 13:02:00,40.3,21.1,30.30,West,263,1.0,7.0,46,0.00,,,0.00,Wunderground v.1.15,2013-03-27 18:02:00,
2013-03-27 13:07:00,41.1,22.9,30.30,NNW,335,4.0,7.0,48,0.00,,,0.00,Wunderground v.1.15,2013-03-27 18:07:00,
2013-03-27 13:12:00,41.1,21.3,30.30,NW,309,6.0,11.0,45,0.00,,,0.00,Wunderground v.1.15,2013-03-27 18:12:00,
2013-03-27 13:17:00,40.2,21.0,30.30,WNW,293,5.0,11.0,46,0.00,,,0.00,Wunderground v.1.15,2013-03-27 18:17:00,
2013-03-27 13:22:00,40.3,21.6,30.30,West,274,8.0,12.0,47,0.00,,,0.00,Wunderground v.1.15,2013-03-27 18:22:00,
2013-03-27 13:27:00,40.6,22.4,30.30,West,277,5.0,12.0,48,0.00,,,0.00,Wunderground v.1.15,2013-03-27 18:27:00,
2013-03-27 13:32:00,40.9,22.2,30.30,NNW,337,6.0,10.0,47,0.00,,,0.00,Wunderground v.1.15,2013-03-27 18:32:00,
2013-03-27 13:37:00,41.1,21.3,30.30,WSW,242,7.0,10.0,45,0.00,,,0.00,Wunderground v.1.15,2013-03-27 18:37:00,
2013-03-27 13:42:00,40.8,21.1,30.30,WNW,288,4.0,15.0,45,0.00,,,0.00,Wunderground v.1.15,2013-03-27 18:42:00,
2013-03-27 13:47:00,40.7,22.0,30.30,West,266,8.0,15.0,47,0.00,,,0.00,Wunderground v.1.15,2013-03-27 18:47:00,
2013-03-27 13:52:00,40.1,22.0,30.30,WNW,284,4.0,12.0,48,0.00,,,0.00,Wunderground v.1.15,2013-03-27 18:52:00,
2013-03-27 13:57:00,40.8,21.6,30.30,WNW,286,4.0,12.0,46,0.00,,,0.00,Wunderground v.1.15,2013-03-27 18:57:00,
2013-03-27 14:02:00,40.9,21.7,30.30,West,277,6.0,7.0,46,0.00,,,0.00,Wunderground v.1.15,2013-03-27 19:02:00,
2013-03-27 14:07:00,40.7,22.0,30.30,West,275,9.0,10.0,47,0.00,,,0.00,Wunderground v.1.15,2013-03-27 19:07:00,
2013-03-27 14:12:00,40.5,22.3,30.30,NW,319,3.0,9.0,48,0.00,,,0.00,Wunderground v.1.15,2013-03-27 19:12:00,
2013-03-27 14:17:00,40.4,21.7,30.30,WNW,284,4.0,9.0,47,0.00,,,0.00,Wunderground v.1.15,2013-03-27 19:17:00,
2013-03-27 14:22:00,40.1,21.5,30.30,WNW,283,4.0,8.0,47,0.00,,,0.00,Wunderground v.1.15,2013-03-27 19:22:00,
2013-03-27 14:27:00,40.1,21.0,30.30,West,264,6.0,8.0,46,0.00,,,0.00,Wunderground v.1.15,2013-03-27 19:27:00,
2013-03-27 14:32:00,39.9,21.3,30.30,West,270,3.0,8.0,47,0.00,,,0.00,Wunderground v.1.15,2013-03-27 19:32:00,
2013-03-27 14:37:00,40.2,22.1,30.30,WNW,302,4.0,9.0,48,0.00,,,0.00,Wunderground v.1.15,2013-03-27 19:37:00,
2013-03-27 14:42:00,40.5,22.3,30.29,NNW,335,2.0,10.0,48,0.00,,,0.00,Wunderground v.1.15,2013-03-27 19:42:00,
2013-03-27 14:47:00,40.4,22.2,30.30,West,260,11.0,11.0,48,0.00,,,0.00,Wunderground v.1.15,2013-03-27 19:47:00,
2013-03-27 14:52:00,39.8,23.1,30.30,West,263,9.0,14.0,51,0.00,,,0.00,Wunderground v.1.15,2013-03-27 19:52:00,
2013-03-27 14:57:00,39.9,22.7,30.30,West,262,5.0,14.0,50,0.00,,,0.00,Wunderground v.1.15,2013-03-27 19:57:00,
2013-03-27 15:02:00,40.4,23.2,30.29,WSW,252,12.0,13.0,50,0.00,,,0.00,Wunderground v.1.15,2013-03-27 20:02:00,
2013-03-27 15:07:00,39.9,22.3,30.30,West,281,8.0,13.0,49,0.00,,,0.00,Wunderground v.1.15,2013-03-27 20:07:00,
2013-03-27 15:12:00,40.0,23.3,30.29,WSW,242,9.0,11.0,51,0.00,,,0.00,Wunderground v.1.15,2013-03-27 20:12:00,
2013-03-27 15:17:00,40.0,22.4,30.30,WNW,283,4.0,11.0,49,0.00,,,0.00,Wunderground v.1.15,2013-03-27 20:17:00,
2013-03-27 15:22:00,39.8,21.7,30.29,WNW,302,4.0,8.0,48,0.00,,,0.00,Wunderground v.1.15,2013-03-27 20:22:00,
2013-03-27 15:27:00,39.5,21.9,30.30,WSW,246,7.0,10.0,49,0.00,,,0.00,Wunderground v.1.15,2013-03-27 20:27:00,
2013-03-27 15:32:00,39.6,22.0,30.29,WSW,250,5.0,9.0,49,0.00,,,0.00,Wunderground v.1.15,2013-03-27 20:32:00,
2013-03-27 15:37:00,39.7,22.1,30.29,NNW,347,2.0,9.0,49,0.00,,,0.00,Wunderground v.1.15,2013-03-27 20:37:00,
2013-03-27 15:42:00,39.7,22.6,30.29,WSW,253,7.0,9.0,50,0.00,,,0.00,Wunderground v.1.15,2013-03-27 20:42:00,
2013-03-27 15:47:00,39.4,23.7,30.29,WSW,253,5.0,11.0,53,0.00,,,0.00,Wunderground v.1.15,2013-03-27 20:47:00,
2013-03-27 15:53:00,40.0,23.3,30.29,West,269,3.0,7.0,51,0.00,,,0.00,Wunderground v.1.15,2013-03-27 20:53:00,
2013-03-27 15:58:00,39.7,23.0,30.30,West,281,10.0,11.0,51,0.00,,,0.00,Wunderground v.1.15,2013-03-27 20:58:00,
2013-03-27 16:03:00,39.2,23.0,30.29,West,278,3.0,10.0,52,0.00,,,0.00,Wunderground v.1.15,2013-03-27 21:03:00,
2013-03-27 16:08:00,39.5,23.3,30.29,West,267,8.0,11.0,52,0.00,,,0.00,Wunderground v.1.15,2013-03-27 21:08:00,
2013-03-27 16:13:00,39.1,22.9,30.29,NW,308,4.0,11.0,52,0.00,,,0.00,Wunderground v.1.15,2013-03-27 21:13:00,
2013-03-27 16:18:00,39.1,22.9,30.29,WSW,252,7.0,11.0,52,0.00,,,0.00,Wunderground v.1.15,2013-03-27 21:18:00,
2013-03-27 16:23:00,39.1,24.3,30.29,WSW,257,4.0,11.0,55,0.00,,,0.00,Wunderground v.1.15,2013-03-27 21:23:00,
2013-03-27 16:28:00,39.2,23.9,30.29,WSW,243,8.0,11.0,54,0.00,,,0.00,Wunderground v.1.15,2013-03-27 21:28:00,
2013-03-27 16:33:00,39.1,22.9,30.29,West,273,5.0,10.0,52,0.00,,,0.00,Wunderground v.1.15,2013-03-27 21:33:00,
2013-03-27 16:38:00,39.6,22.5,30.29,WSW,245,4.0,10.0,50,0.00,,,0.00,Wunderground v.1.15,2013-03-27 21:38:00,
2013-03-27 16:43:00,39.9,23.2,30.29,West,271,7.0,9.0,51,0.00,,,0.00,Wunderground v.1.15,2013-03-27 21:43:00,
2013-03-27 16:48:00,39.3,23.1,30.29,West,260,8.0,9.0,52,0.00,,,0.00,Wunderground v.1.15,2013-03-27 21:48:00,
2013-03-27 16:53:00,39.6,22.9,30.29,WSW,256,7.0,11.0,51,0.00,,,0.00,Wunderground v.1.15,2013-03-27 21:53:00,
2013-03-27 16:58:00,39.4,23.7,30.29,West,280,4.0,12.0,53,0.00,,,0.00,Wunderground v.1.15,2013-03-27 21:58:00,
2013-03-27 17:03:00,39.3,23.1,30.29,West,268,6.0,9.0,52,0.00,,,0.00,Wunderground v.1.15,2013-03-27 22:03:00,
2013-03-27 17:08:00,39.7,23.5,30.29,West,259,10.0,10.0,52,0.00,,,0.00,Wunderground v.1.15,2013-03-27 22:08:00,
2013-03-27 17:13:00,39.6,22.9,30.29,West,281,8.0,9.0,51,0.00,,,0.00,Wunderground v.1.15,2013-03-27 22:13:00,
2013-03-27 17:18:00,39.5,22.8,30.29,WSW,257,6.0,9.0,51,0.00,,,0.00,Wunderground v.1.15,2013-03-27 22:18:00,
2013-03-27 17:23:00,39.7,23.5,30.28,West,274,5.0,9.0,52,0.00,,,0.00,Wunderground v.1.15,2013-03-27 22:23:00,
2013-03-27 17:28:00,39.9,22.7,30.28,West,271,7.0,9.0,50,0.00,,,0.00,Wunderground v.1.15,2013-03-27 22:28:00,
2013-03-27 17:33:00,40.1,22.9,30.29,West,274,5.0,9.0,50,0.00,,,0.00,Wunderground v.1.15,2013-03-27 22:33:00,
2013-03-27 17:38:00,40.2,22.5,30.29,WSW,249,4.0,5.0,49,0.00,,,0.00,Wunderground v.1.15,2013-03-27 22:38:00,
2013-03-27 17:43:00,40.1,22.9,30.29,West,278,3.0,11.0,50,0.00,,,0.00,Wunderground v.1.15,2013-03-27 22:43:00,
2013-03-27 17:48:00,40.3,23.1,30.29,WNW,295,2.0,5.0,50,0.00,,,0.00,Wunderground v.1.15,2013-03-27 22:48:00,
2013-03-27 17:53:00,40.6,22.9,30.29,West,277,6.0,9.0,49,0.00,,,0.00,Wunderground v.1.15,2013-03-27 22:53:00,
2013-03-27 17:58:00,40.4,22.7,30.29,West,259,5.0,5.0,49,0.00,,,0.00,Wunderground v.1.15,2013-03-27 22:58:00,
2013-03-27 18:03:00,40.1,22.9,30.29,West,269,4.0,9.0,50,0.00,,,0.00,Wunderground v.1.15,2013-03-27 23:03:00,
2013-03-27 18:08:00,39.9,23.2,30.29,West,271,5.0,5.0,51,0.00,,,0.00,Wunderground v.1.15,2013-03-27 23:08:00,
2013-03-27 18:13:00,39.5,23.3,30.29,WSW,256,3.0,9.0,52,0.00,,,0.00,Wunderground v.1.15,2013-03-27 23:13:00,
2013-03-27 18:18:00,39.2,23.0,30.29,WNW,301,5.0,5.0,52,0.00,,,0.00,Wunderground v.1.15,2013-03-27 23:18:00,
2013-03-27 18:23:00,39.1,22.9,30.29,West,271,5.0,9.0,52,0.00,,,0.00,Wunderground v.1.15,2013-03-27 23:23:00,
2013-03-27 18:28:00,38.9,23.2,30.29,WSW,251,6.0,6.0,53,0.00,,,0.00,Wunderground v.1.15,2013-03-27 23:28:00,
2013-03-27 18:33:00,38.7,23.5,30.29,West,263,4.0,7.0,54,0.00,,,0.00,Wunderground v.1.15,2013-03-27 23:33:00,
2013-03-27 18:38:00,38.5,23.7,30.29,West,269,6.0,6.0,55,0.00,,,0.00,Wunderground v.1.15,2013-03-27 23:38:00,
2013-03-27 18:43:00,38.4,23.6,30.29,West,272,1.0,6.0,55,0.00,,,0.00,Wunderground v.1.15,2013-03-27 23:43:00,
2013-03-27 18:48:00,38.2,23.4,30.29,West,274,3.0,3.0,55,0.00,,,0.00,Wunderground v.1.15,2013-03-27 23:48:00,
2013-03-27 18:53:00,37.9,24.0,30.29,WSW,257,3.0,5.0,57,0.00,,,0.00,Wunderground v.1.15,2013-03-27 23:53:00,
2013-03-27 18:58:00,37.5,23.6,30.29,WSW,253,3.0,3.0,57,0.00,,,0.00,Wunderground v.1.15,2013-03-27 23:58:00,
2013-03-27 19:03:00,37.1,23.3,30.29,West,261,4.0,6.0,57,0.00,,,0.00,Wunderground v.1.15,2013-03-28 00:03:00,
2013-03-27 19:08:00,36.7,23.3,30.29,West,260,2.0,3.0,58,0.00,,,0.00,Wunderground v.1.15,2013-03-28 00:08:00,
2013-03-27 19:13:00,36.1,23.5,30.29,West,259,2.0,4.0,60,0.00,,,0.00,Wunderground v.1.15,2013-03-28 00:13:00,
2013-03-27 19:18:00,35.6,23.5,30.29,WSW,253,2.0,2.0,61,0.00,,,0.00,Wunderground v.1.15,2013-03-28 00:18:00,
2013-03-27 19:23:00,35.4,22.9,30.29,West,266,1.0,2.0,60,0.00,,,0.00,Wunderground v.1.15,2013-03-28 00:23:00,
2013-03-27 19:28:00,35.2,22.7,30.29,West,267,1.0,1.0,60,0.00,,,0.00,Wunderground v.1.15,2013-03-28 00:28:00,
2013-03-27 19:33:00,34.8,23.1,30.29,West,268,0.0,1.0,62,0.00,,,0.00,Wunderground v.1.15,2013-03-28 00:33:00,
2013-03-27 19:38:00,34.5,22.8,30.29,West,267,0.0,0.0,62,0.00,,,0.00,Wunderground v.1.15,2013-03-28 00:38:00,
2013-03-27 19:43:00,34.2,22.5,30.29,West,267,0.0,0.0,62,0.00,,,0.00,Wunderground v.1.15,2013-03-28 00:43:00,
2013-03-27 19:48:00,33.8,22.5,30.29,West,268,0.0,0.0,63,0.00,,,0.00,Wunderground v.1.15,2013-03-28 00:48:00,
2013-03-27 19:53:00,33.4,22.5,30.29,West,267,0.0,0.0,64,0.00,,,0.00,Wunderground v.1.15,2013-03-28 00:53:00,
2013-03-27 19:58:00,33.2,22.3,30.29,West,267,0.0,0.0,64,0.00,,,0.00,Wunderground v.1.15,2013-03-28 00:58:00,
2013-03-27 20:03:00,32.7,22.2,30.29,West,267,0.0,0.0,65,0.00,,,0.00,Wunderground v.1.15,2013-03-28 01:03:00,
2013-03-27 20:08:00,32.2,22.5,30.29,West,268,0.0,0.0,67,0.00,,,0.00,Wunderground v.1.15,2013-03-28 01:08:00,
2013-03-27 20:13:00,32.1,22.4,30.29,West,267,0.0,0.0,67,0.00,,,0.00,Wunderground v.1.15,2013-03-28 01:13:00,
2013-03-27 20:18:00,31.8,22.4,30.29,West,267,0.0,0.0,68,0.00,,,0.00,Wunderground v.1.15,2013-03-28 01:18:00,
2013-03-27 20:23:00,31.6,22.2,30.30,West,266,0.0,0.0,68,0.00,,,0.00,Wunderground v.1.15,2013-03-28 01:23:00,
2013-03-27 20:28:00,31.2,22.2,30.30,West,267,0.0,0.0,69,0.00,,,0.00,Wunderground v.1.15,2013-03-28 01:28:00,
2013-03-27 20:33:00,31.0,22.4,30.30,West,267,0.0,0.0,70,0.00,,,0.00,Wunderground v.1.15,2013-03-28 01:33:00,
2013-03-27 20:38:00,30.8,22.2,30.30,West,267,0.0,0.0,70,0.00,,,0.00,Wunderground v.1.15,2013-03-28 01:38:00,
2013-03-27 20:43:00,30.8,22.5,30.30,West,266,0.0,0.0,71,0.00,,,0.00,Wunderground v.1.15,2013-03-28 01:43:00,
2013-03-27 20:48:00,30.5,22.2,30.30,West,267,0.0,0.0,71,0.00,,,0.00,Wunderground v.1.15,2013-03-28 01:48:00,
2013-03-27 20:53:00,30.2,22.3,30.30,West,267,0.0,0.0,72,0.00,,,0.00,Wunderground v.1.15,2013-03-28 01:53:00,
2013-03-27 20:58:00,30.1,22.2,30.30,West,266,0.0,0.0,72,0.00,,,0.00,Wunderground v.1.15,2013-03-28 01:58:00,
2013-03-27 21:03:00,29.8,22.2,30.30,West,267,0.0,0.0,73,0.00,,,0.00,Wunderground v.1.15,2013-03-28 02:03:00,
2013-03-27 21:08:00,29.5,22.2,30.30,West,266,0.0,0.0,74,0.00,,,0.00,Wunderground v.1.15,2013-03-28 02:08:00,
2013-03-27 21:13:00,29.3,22.4,30.30,West,266,0.0,0.0,75,0.00,,,0.00,Wunderground v.1.15,2013-03-28 02:13:00,
2013-03-27 21:18:00,29.2,22.3,30.30,WSW,256,0.0,0.0,75,0.00,,,0.00,Wunderground v.1.15,2013-03-28 02:18:00,
2013-03-27 21:23:00,28.7,22.1,30.30,WSW,255,0.0,0.0,76,0.00,,,0.00,Wunderground v.1.15,2013-03-28 02:23:00,
2013-03-27 21:28:00,28.4,22.1,30.30,WSW,256,0.0,0.0,77,0.00,,,0.00,Wunderground v.1.15,2013-03-28 02:28:00,
2013-03-27 21:33:00,28.2,22.2,30.30,WSW,256,0.0,0.0,78,0.00,,,0.00,Wunderground v.1.15,2013-03-28 02:33:00,
2013-03-27 21:38:00,28.1,22.1,30.30,WSW,256,0.0,0.0,78,0.00,,,0.00,Wunderground v.1.15,2013-03-28 02:38:00,
2013-03-27 21:43:00,27.9,21.9,30.30,WSW,256,0.0,0.0,78,0.00,,,0.00,Wunderground v.1.15,2013-03-28 02:43:00,
2013-03-27 21:48:00,27.6,21.9,30.30,WSW,257,0.0,0.0,79,0.00,,,0.00,Wunderground v.1.15,2013-03-28 02:48:00,
2013-03-27 21:53:00,27.6,21.9,30.30,West,263,0.0,0.0,79,0.00,,,0.00,Wunderground v.1.15,2013-03-28 02:53:00,
2013-03-27 21:58:00,27.8,22.1,30.30,West,262,0.0,0.0,79,0.00,,,0.00,Wunderground v.1.15,2013-03-28 02:58:00,
2013-03-27 22:03:00,28.0,22.0,30.30,West,263,0.0,0.0,78,0.00,,,0.00,Wunderground v.1.15,2013-03-28 03:03:00,
2013-03-27 22:08:00,27.8,21.8,30.30,West,263,0.0,0.0,78,0.00,,,0.00,Wunderground v.1.15,2013-03-28 03:08:00,
2013-03-27 22:13:00,27.5,21.8,30.30,West,263,0.0,0.0,79,0.00,,,0.00,Wunderground v.1.15,2013-03-28 03:13:00,
2013-03-27 22:18:00,27.5,21.8,30.30,West,263,0.0,0.0,79,0.00,,,0.00,Wunderground v.1.15,2013-03-28 03:18:00,
2013-03-27 22:23:00,27.7,22.0,30.30,West,259,0.0,0.0,79,0.00,,,0.00,Wunderground v.1.15,2013-03-28 03:23:00,
2013-03-27 22:28:00,27.8,22.1,30.30,West,259,0.0,0.0,79,0.00,,,0.00,Wunderground v.1.15,2013-03-28 03:28:00,
2013-03-27 22:33:00,27.8,22.1,30.30,West,259,0.0,0.0,79,0.00,,,0.00,Wunderground v.1.15,2013-03-28 03:33:00,
2013-03-27 22:39:00,27.6,21.6,30.30,West,259,0.0,0.0,78,0.00,,,0.00,Wunderground v.1.15,2013-03-28 03:39:00,
2013-03-27 22:44:00,27.3,21.6,30.30,West,259,0.0,0.0,79,0.00,,,0.00,Wunderground v.1.15,2013-03-28 03:44:00,
2013-03-27 22:49:00,27.3,21.9,30.30,West,259,0.0,0.0,80,0.00,,,0.00,Wunderground v.1.15,2013-03-28 03:49:00,
2013-03-27 22:54:00,27.6,21.9,30.30,West,266,0.0,0.0,79,0.00,,,0.00,Wunderground v.1.15,2013-03-28 03:54:00,
2013-03-27 22:59:00,28.1,21.8,30.30,West,270,0.0,0.0,77,0.00,,,0.00,Wunderground v.1.15,2013-03-28 03:59:00,
2013-03-27 23:00:00,28.1,21.8,30.30,West,270,0.0,0.0,77,0.00,,,0.00,Wunderground v.1.15,2013-03-28 04:00:00,
2013-03-27 23:05:00,28.3,22.0,30.30,West,263,0.0,0.0,77,0.00,,,0.00,Wunderground v.1.15,2013-03-28 04:05:00,
2013-03-27 23:10:00,28.9,22.0,30.30,WSW,253,1.0,2.0,75,0.00,,,0.00,Wunderground v.1.15,2013-03-28 04:10:00,
2013-03-27 23:15:00,29.7,22.4,30.30,West,274,3.0,4.0,74,0.00,,,0.00,Wunderground v.1.15,2013-03-28 04:15:00,
2013-03-27 23:20:00,30.4,22.4,30.30,West,269,2.0,3.0,72,0.00,,,0.00,Wunderground v.1.15,2013-03-28 04:20:00,
2013-03-27 23:25:00,30.6,22.3,30.31,West,262,2.0,3.0,71,0.00,,,0.00,Wunderground v.1.15,2013-03-28 04:25:00,
2013-03-27 23:30:00,30.7,22.1,30.31,West,281,1.0,3.0,70,0.00,,,0.00,Wunderground v.1.15,2013-03-28 04:30:00,
2013-03-27 23:35:00,30.8,22.2,30.31,West,267,2.0,4.0,70,0.00,,,0.00,Wunderground v.1.15,2013-03-28 04:35:00,
2013-03-27 23:40:00,30.7,22.1,30.30,West,267,1.0,3.0,70,0.00,,,0.00,Wunderground v.1.15,2013-03-28 04:40:00,
2013-03-27 23:45:00,30.6,21.6,30.30,West,267,1.0,3.0,69,0.00,,,0.00,Wunderground v.1.15,2013-03-28 04:45:00,
2013-03-27 23:50:00,30.3,21.7,30.30,West,266,1.0,2.0,70,0.00,,,0.00,Wunderground v.1.15,2013-03-28 04:50:00,
2013-03-27 23:55:00,30.0,21.4,30.30,West,280,2.0,2.0,70,0.00,,,0.00,Wunderground v.1.15,2013-03-28 04:55:00,